When you browse on this site, cookies collect data to enhance your experience and personalize the content and advertising you see.
Visit our Privacy Policy to learn more. By continuing to use the site, you agree to this use of cookies and data.

Stündliche Wetter Bolshie Leznevichi

Heute, 29 September, Dienstag

Zeit Temperatur Niederschläge Wind Luftdruck Luftfeuchtigkeit
00:00 +9°C° 0 mm 3 m/S 739 mmHg 80%
01:00 +9°C° 0 mm 3 m/S 739 mmHg 80%
02:00 +8°C° 0 mm 3 m/S 739 mmHg 80%
03:00 +9°C° 0 mm 3 m/S 738 mmHg 79%
04:00 +8°C° 0 mm 4 m/S 738 mmHg 77%
05:00 +8°C° 0 mm 4 m/S 738 mmHg 76%
06:00 +8°C° 0 mm 4 m/S 738 mmHg 74%
07:00 +10°C° 0 mm 4 m/S 738 mmHg 72%
08:00 +10°C° 0 mm 4 m/S 738 mmHg 70%
09:00 +12°C° 0 mm 4 m/S 738 mmHg 67%
10:00 +13°C° 0 mm 4 m/S 738 mmHg 64%
11:00 +15°C° 0 mm 4 m/S 738 mmHg 61%
12:00 +17°C° 0 mm 4 m/S 738 mmHg 58%
13:00 +17°C° 0 mm 4 m/S 738 mmHg 55%
14:00 +18°C° 0 mm 4 m/S 738 mmHg 52%
15:00 +18°C° 0 mm 4 m/S 737 mmHg 57%
16:00 +17°C° 0 mm 4 m/S 737 mmHg 61%
17:00 +16°C° 0 mm 3 m/S 736 mmHg 65%
18:00 +14°C° 0 mm 3 m/S 736 mmHg 70%
19:00 +12°C° 0 mm 4 m/S 736 mmHg 74%
20:00 +11°C° 0 mm 4 m/S 737 mmHg 79%
21:00 +11°C° 0 mm 4 m/S 736 mmHg 83%
22:00 +11°C° 0 mm 4 m/S 736 mmHg 86%
23:00 +11°C° 0 mm 4 m/S 736 mmHg 90%

Morgen, 30 September, Mittwoch

Zeit Temperatur Niederschläge Wind Luftdruck Luftfeuchtigkeit
00:00 +11°C° 0 mm 4 m/S 736 mmHg 89%
01:00 +11°C° 0 mm 4 m/S 736 mmHg 88%
02:00 +11°C° 0 mm 4 m/S 736 mmHg 87%
03:00 +11°C° 0 mm 4 m/S 735 mmHg 86%
04:00 +11°C° 0 mm 4 m/S 735 mmHg 85%
05:00 +11°C° 0 mm 4 m/S 735 mmHg 84%
06:00 +10°C° 0 mm 5 m/S 735 mmHg 81%
07:00 +10°C° 0 mm 5 m/S 735 mmHg 78%
08:00 +10°C° 0 mm 5 m/S 735 mmHg 76%
09:00 +12°C° 0 mm 5 m/S 734 mmHg 71%
10:00 +13°C° 0 mm 5 m/S 734 mmHg 66%
11:00 +14°C° 0 mm 5 m/S 734 mmHg 62%
12:00 +14°C° 0 mm 5 m/S 734 mmHg 61%
13:00 +15°C° 0 mm 5 m/S 734 mmHg 60%
14:00 +15°C° 0 mm 5 m/S 734 mmHg 59%
15:00 +15°C° 0 mm 5 m/S 734 mmHg 61%
16:00 +14°C° 0 mm 5 m/S 734 mmHg 62%
17:00 +13°C° 0 mm 5 m/S 734 mmHg 64%
18:00 +13°C° 0 mm 5 m/S 734 mmHg 65%
19:00 +12°C° 0 mm 5 m/S 734 mmHg 66%
20:00 +11°C° 0 mm 4 m/S 734 mmHg 68%
21:00 +11°C° 0 mm 4 m/S 734 mmHg 68%
22:00 +10°C° 0 mm 4 m/S 734 mmHg 68%
23:00 +10°C° 0 mm 4 m/S 734 mmHg 68%

übermorgen, 1 Oktober, Donnerstag

Zeit Temperatur Niederschläge Wind Luftdruck Luftfeuchtigkeit
00:00 +8°C° 0 mm 4 m/S 734 mmHg 67%
01:00 +8°C° 0 mm 4 m/S 733 mmHg 67%
02:00 +8°C° 0 mm 4 m/S 733 mmHg 67%
03:00 +8°C° 0 mm 4 m/S 733 mmHg 66%
04:00 +10°C° 0 mm 4 m/S 733 mmHg 64%
05:00 +10°C° 0 mm 4 m/S 733 mmHg 63%
06:00 +9°C° 0 mm 5 m/S 733 mmHg 63%
07:00 +10°C° 0 mm 5 m/S 733 mmHg 62%
08:00 +10°C° 0 mm 5 m/S 733 mmHg 62%
09:00 +11°C° 0 mm 6 m/S 733 mmHg 62%
10:00 +14°C° 0 mm 6 m/S 733 mmHg 62%
11:00 +15°C° 0 mm 6 m/S 733 mmHg 62%
12:00 +15°C° 0 mm 6 m/S 733 mmHg 65%
13:00 +15°C° 0 mm 6 m/S 733 mmHg 68%
14:00 +15°C° 0 mm 5 m/S 734 mmHg 72%
15:00 +15°C° 0 mm 5 m/S 734 mmHg 73%
16:00 +14°C° 0 mm 5 m/S 734 mmHg 75%
17:00 +14°C° 0 mm 5 m/S 734 mmHg 77%
18:00 +13°C° 0 mm 5 m/S 734 mmHg 78%
19:00 +13°C° 0 mm 5 m/S 734 mmHg 80%
20:00 +12°C° 0 mm 5 m/S 735 mmHg 81%
21:00 +10°C° 0 mm 5 m/S 735 mmHg 83%
22:00 +10°C° 0 mm 5 m/S 734 mmHg 85%
23:00 +9°C° 0 mm 5 m/S 734 mmHg 86%

2 Oktober, Freitag

Zeit Temperatur Niederschläge Wind Luftdruck Luftfeuchtigkeit
00:00 +9°C° 0 mm 5 m/S 734 mmHg 88%
01:00 +8°C° 0 mm 4 m/S 734 mmHg 90%
02:00 +8°C° 0 mm 4 m/S 734 mmHg 92%
03:00 +8°C° 0 mm 4 m/S 734 mmHg 90%
04:00 +7°C° 0 mm 4 m/S 734 mmHg 88%
05:00 +7°C° 0 mm 4 m/S 734 mmHg 86%
06:00 +8°C° 0 mm 5 m/S 734 mmHg 83%
07:00 +8°C° 0 mm 5 m/S 734 mmHg 79%
08:00 +9°C° 0 mm 5 m/S 734 mmHg 76%
09:00 +10°C° 0 mm 5 m/S 735 mmHg 74%
10:00 +12°C° 0 mm 5 m/S 735 mmHg 72%
11:00 +14°C° 0 mm 6 m/S 735 mmHg 70%
12:00 +15°C° 0 mm 6 m/S 735 mmHg 68%
13:00 +16°C° 0 mm 6 m/S 735 mmHg 67%
14:00 +17°C° 0 mm 6 m/S 735 mmHg 66%
15:00 +16°C° 0.2 mm 5 m/S 735 mmHg 69%
16:00 +15°C° 0.2 mm 5 m/S 735 mmHg 72%
17:00 +15°C° 0.2 mm 4 m/S 735 mmHg 76%
18:00 +14°C° 0.2 mm 5 m/S 735 mmHg 78%
19:00 +13°C° 0.2 mm 5 m/S 735 mmHg 80%
20:00 +13°C° 0.2 mm 5 m/S 736 mmHg 82%
21:00 +12°C° 0 mm 5 m/S 736 mmHg 83%
22:00 +12°C° 0 mm 5 m/S 736 mmHg 83%
23:00 +10°C° 0 mm 5 m/S 736 mmHg 83%

3 Oktober, Samstag

Zeit Temperatur Niederschläge Wind Luftdruck Luftfeuchtigkeit
00:00 +11°C° 0 mm 4 m/S 736 mmHg 86%
01:00 +10°C° 0 mm 4 m/S 736 mmHg 88%
02:00 +10°C° 0 mm 4 m/S 736 mmHg 90%
03:00 +10°C° 0 mm 4 m/S 736 mmHg 91%
04:00 +8°C° 0 mm 4 m/S 735 mmHg 92%
05:00 +8°C° 0 mm 4 m/S 735 mmHg 93%
06:00 +8°C° 0.3 mm 4 m/S 735 mmHg 92%
07:00 +10°C° 0.3 mm 4 m/S 735 mmHg 91%
08:00 +10°C° 0.3 mm 4 m/S 735 mmHg 90%
09:00 +10°C° 0.1 mm 5 m/S 736 mmHg 88%
10:00 +12°C° 0.1 mm 5 m/S 736 mmHg 87%
11:00 +13°C° 0.1 mm 5 m/S 736 mmHg 85%
12:00 +13°C° 0.1 mm 5 m/S 736 mmHg 85%
13:00 +13°C° 0.1 mm 5 m/S 736 mmHg 85%
14:00 +13°C° 0.1 mm 4 m/S 736 mmHg 85%
15:00 +13°C° 0.3 mm 4 m/S 735 mmHg 86%
16:00 +13°C° 0.3 mm 5 m/S 735 mmHg 87%
17:00 +13°C° 0.3 mm 5 m/S 735 mmHg 88%
18:00 +12°C° 0 mm 4 m/S 735 mmHg 90%
19:00 +12°C° 0 mm 4 m/S 735 mmHg 92%
20:00 +11°C° 0 mm 4 m/S 735 mmHg 94%
21:00 +11°C° 0 mm 4 m/S 735 mmHg 95%
22:00 +11°C° 0 mm 4 m/S 735 mmHg 95%
23:00 +11°C° 0 mm 4 m/S 735 mmHg 96%

4 Oktober, Sonntag

Zeit Temperatur Niederschläge Wind Luftdruck Luftfeuchtigkeit
00:00 +11°C° 0 mm 4 m/S 735 mmHg 96%
01:00 +11°C° 0 mm 4 m/S 735 mmHg 96%
02:00 +11°C° 0 mm 4 m/S 735 mmHg 96%
03:00 +11°C° 0 mm 4 m/S 735 mmHg 94%
04:00 +12°C° 0 mm 5 m/S 735 mmHg 93%
05:00 +12°C° 0 mm 5 m/S 735 mmHg 92%
06:00 +12°C° 0 mm 5 m/S 735 mmHg 91%
07:00 +12°C° 0 mm 5 m/S 735 mmHg 90%
08:00 +11°C° 0 mm 6 m/S 735 mmHg 90%
09:00 +13°C° 0 mm 6 m/S 735 mmHg 87%
10:00 +13°C° 0 mm 6 m/S 735 mmHg 85%
11:00 +14°C° 0 mm 6 m/S 735 mmHg 82%
12:00 +14°C° 0 mm 7 m/S 735 mmHg 81%
13:00 +15°C° 0 mm 7 m/S 734 mmHg 79%
14:00 +15°C° 0 mm 7 m/S 734 mmHg 77%
15:00 +15°C° 0 mm 7 m/S 734 mmHg 78%
16:00 +15°C° 0 mm 7 m/S 734 mmHg 80%
17:00 +14°C° 0 mm 7 m/S 734 mmHg 81%
18:00 +14°C° 0 mm 7 m/S 733 mmHg 82%
19:00 +12°C° 0 mm 7 m/S 733 mmHg 84%
20:00 +12°C° 0 mm 7 m/S 733 mmHg 85%
21:00 +12°C° 0 mm 7 m/S 733 mmHg 86%
22:00 +12°C° 0 mm 7 m/S 733 mmHg 86%
23:00 +12°C° 0 mm 7 m/S 733 mmHg 87%
Mehr zeigen